Regional Weather Roundup
Issued by NWS

Home | Current Version | Previous Version | Graphics & Text | Print | Product List | Glossary On
Versions: 1 2 3 4 5 6 7 8 9 10 11 12 13 14 15 16 17 18 19 20 21 22 23 24 25 26 27 28 29 30 31 32 33 34 35 36 37 38 39 40 41 42 43 44 45 46 47 48 49 50
000
ASUS45 KSLC 050310
RWRUT

UTAH REGIONAL WEATHER ROUNDUP
NATIONAL WEATHER SERVICE SALT LAKE CITY UT
800 PM MST WED MAR 04 2015

UTZ001>011-023>025-050400-

NORTHERN UTAH

CITY           SKY/WX    TMP DP  RH WIND       PRES   REMARKS
HILL AFB       CLEAR     30  14  51 SE3       30.28R
LOGAN          CLEAR     32  19  58 S8        30.27R WCI  25
OGDEN          CLEAR     32  18  56 SE5       30.28R WCI  27
PROVO AIRPORT  CLEAR     34  18  51 NW9       30.30R WCI  26
SALT LAKE CITY CLEAR     33  21  61 VRB3      30.29R
VERNAL         PTCLDY    26  15  63 W5        30.22R WCI  20
WENDOVER       CLEAR     36  19  51 S5        30.28R WCI  32
HEBER CITY     PTCLDY    21  14  73 SE6       30.25R WCI  14
WEST JORDAN    CLEAR     28  21  74 SW7       30.30R WCI  21

$$

UTZ012>022-026-027-050400-

SOUTHERN/CENTRAL UTAH

CITY           SKY/WX    TMP DP  RH WIND       PRES   REMARKS
BRYCE CANYON   PTCLDY    15   8  73 NW13      30.22R WCI   1
CEDAR CITY     PTCLDY    22  15  75 NE3       30.25R
HANKSVILLE     CLEAR     34  21  60 W3        30.23R
MILFORD        CLEAR     30  20  66 CALM      30.27R
MOAB/CYNLANDS  CLEAR     30  20  66 W6        30.19R WCI  24
PRICE          CLEAR     30  11  45 W8G17     30.20R WCI  22
ST GEORGE      PTCLDY    46  21  36 NE13G21   30.25R
KANAB          CLEAR     36  21  55 NW12      30.27R WCI  27

$$

REGIONAL REPORTS     COLORADO/ARIZONA

CITY           SKY/WX    TMP DP  RH WIND       PRES   REMARKS
CRAIG, CO      CLEAR     13   3  64 E5        30.22R WCI   5
GRAND JUNCTION PTCLDY    32  12  43 NE14      30.20R WCI  22
RIFLE          PTCLDY    26   8  46 CALM      30.25R
MONTROSE       PTCLDY    30  20  66 SW3       30.23R
CORTEZ         CLEAR     30  16  56 NW9       30.18R WCI  22
PAGE, AZ       CLEAR     40  19  43 S7        30.21R
GRAND CANYON   CLEAR     20  16  84 CALM      30.22R
KINGMAN        CLEAR     45  24  43 NE9G20    30.19R
FLAGSTAFF      NOT AVBL

$$

REGIONAL REPORTS    NEVADA/IDAHO/WYOMING

CITY           SKY/WX    TMP DP  RH WIND       PRES   REMARKS
LAS VEGAS, NV  NOT AVBL
ELY            CLEAR     27  18  69 CALM      30.25R
ELKO           CLEAR     30  16  56 SW6       30.25R WCI  24
POCATELLO, ID  CLEAR     29  14  53 SW10      30.25R WCI  20
EVANSTON, WY   CLEAR     13   6  74 SW10      30.21R WCI   0
ROCK SPRINGS   CLEAR     17   6  62 W18       30.14R WCI   1

$$


USA.gov is the U.S. government's official web portal to all federal, state and local government web resources and services.